SCP
-0 -0 -0 0 0 2 0 0 0 0 0 -0 0 1 1 0 0 -0 0 0 0 0 0 0 0 0 0 0 0 0 0 0 0 0 0 0 0 0
0 -0 -0 -0 0 1 -0 0 0 0 0 -0 0 0 0 0 -0 0 0 0 0 0 0 0 0 0 0 0 0 0 0 0 0 0 0 0 0 0
0 0 0 -0 0 1 0 0 0 0 0 -0 -0 -0 0 0 0 0 0 1 0 0 0 0 0 0 0 0 0 0 0 0 0 0 0 0 0 0
0 0 0 1 1 0 0 -0 -0 -0 0 0 -0 -0 0 0 0 0 0 0 0 0 0 0 0 0 0 0 0 0 0 0 0 0 0 0 0 0
1 1 1 1 1 0 0 -0 -0 -0 -0 0 0 -0 -0 0 0 0 0 0 0 0 0 0 0 0 0 0 0 0 0 0 0 0 0 0 0 0
2 1 1 1 1 1 0 0 0 0 0 0 0 0 0 0 1 0 0 0 0 0 0 0 0 0 0 0 0 0 0 0 0 0 0 0 0 0
2 2 2 1 1 1 1 1 0 1 0 1 0 0 0 0 0 0 0 0 0 0 0 0 0 0 0 0 0 0 0 0 0 0 0 0 0 0
2 2 2 2 1 1 1 1 1 1 1 1 1 0 0 0 0 0 0 0 0 0 0 0 0 0 0 0 0 -0 -0 -0 0 0 0 0 0 0
3 2 2 2 1 1 0 0 0 1 1 1 1 1 1 1 0 0 0 0 0 0 0 0 0 0 0 0 0 0 -0 -0 -0 0 0 0 0 0
2 2 2 2 2 2 2 1 1 1 1 1 1 1 1 1 1 1 0 0 0 0 0 0 0 0 0 0 0 0 0 0 0 0 0 0 0 0
2 2 2 2 2 3 2 2 2 1 1 1 1 0 0 0 0 1 0 0 0 0 0 0 0 0 0 0 0 0 0 0 0 0 0 0 0 0
1 2 1 2 2 1 1 3 2 2 2 0 0 0 0 0 0 0 0 0 0 0 0 0 0 0 0 0 0 0 0 0 0 0 0 0 0 0
1 1 2 1 0 0 0 2 2 2 1 1 1 1 1 0 0 0 0 0 0 0 0 0 0 0 0 0 0 0 0 0 0 0 0 0 0 0
2 2 1 0 0 0 0 0 0 1 1 1 1 0 1 0 0 0 0 0 0 0 0 0 0 0 0 0 0 0 0 0 0 0 0 0 0 0
0 0 0 0 0 0 0 0 0 0 0 0 0 0 0 0 0 0 0 0 0 0 0 0 0 0 0 0 0 0 0 0 0 0 0 0 0 0
0 0 0 0 0 0 0 0 0 0 0 0 0 0 0 0 0 0 0 0 0 0 0 0 0 0 0 0 0 0 0 0 0 0 0 0 0 0
0 0 0 0 0 0 0 0 0 0 0 0 0 0 0 0 0 0 0 0 0 0 0 0 0 0 0 0 0 0 0 0 0 0 0 0 0 0
0 0 0 0 0 0 0 0 0 0 0 0 0 0 0 0 0 0 0 0 0 0 0 0 0 0 0 0 0 0 0 0 0 0 0 0 0 0
0 0 0 0 0 0 0 0 0 0 0 0 0 0 0 0 0 0 0 0 0 0 0 0 0 0 0 0 0 0 0 0 0 0 0 0 0 0
0 0 0 0 0 0 0 0 0 0 0 0 0 0 0 0 0 0 0 0 0 0 0 0 0 0 0 0 0 0 0 0 0 0 0 0 0 0
0 0 0 0 0 0 0 0 0 0 0 0 0 0 0 0 0 0 0 0 0 0 0 0 0 0 0 0 0 0 0 0 0 0 0 0 0 0
0 0 0 0 0 0 0 0 0 0 0 0 0 0 0 0 0 0 0 0 0 0 0 0 0 0 0 0 0 0 0 0 0 0 0 0 0 0
0 0 0 0 0 0 0 0 0 0 0 0 0 0 0 0 -0 0 -0 0 0 0 0 0 0 0 0 0 0 0 0 0 0 0 0 0 0 0
Wind_Speed_500mb
68 61 62 59 50 52 54 54 53 57 61 62 51 45 49 50 53 47 44 53 56 54 54 52 50 51 52 50 47 44 46 47 51 48 43 40 49 41
64 60 56 56 55 61 63 51 58 52 66 55 28 41 45 52 31 34 42 52 50 42 37 34 34 37 38 39 38 36 38 43 42 36 38 48 41 39
69 67 61 59 62 59 58 51 52 58 58 54 49 42 39 34 34 39 49 46 38 33 31 31 29 29 25 25 27 28 30 30 33 41 41 39 37 37
67 66 62 68 69 62 59 55 46 42 43 51 45 42 37 41 42 46 47 41 33 31 29 29 24 21 21 24 28 28 28 29 32 36 34 36 38 36
73 67 62 64 59 60 52 43 46 38 39 46 51 38 34 42 42 44 39 31 27 32 28 27 24 21 20 22 27 29 32 35 33 32 34 38 38 37
69 73 69 64 62 56 51 53 46 44 43 40 43 42 37 36 48 49 37 29 26 23 25 15 15 19 22 23 27 29 28 26 29 33 37 37 36 34
69 68 69 67 64 58 56 55 51 53 52 47 46 36 33 41 50 42 39 28 26 27 29 29 25 26 21 16 15 21 16 16 22 27 33 36 32 30
72 68 69 69 71 61 57 52 50 52 57 48 46 42 35 38 38 38 29 30 36 32 34 21 31 29 35 28 15 20 20 31 33 34 33 33 32 30
73 71 73 75 72 65 59 57 57 61 59 50 57 53 43 43 39 41 41 37 35 26 25 32 23 32 29 18 28 27 27 35 38 37 34 31 31 31
71 73 74 67 65 63 62 61 70 70 74 64 56 46 51 45 35 34 41 40 43 36 38 38 30 35 23 26 29 28 33 32 31 33 33 30 31 31
70 72 71 73 73 74 60 63 66 65 71 69 60 55 50 41 39 38 38 38 42 35 26 32 29 23 23 28 30 27 28 27 35 35 34 31 31 36
70 64 67 75 75 64 67 73 69 66 56 61 56 44 38 38 35 45 42 45 44 35 29 40 36 16 19 18 27 37 35 31 34 31 33 31 32 37
49 52 58 69 72 65 61 67 71 64 56 48 46 41 45 49 60 53 53 62 53 51 27 27 32 28 26 31 22 22 32 43 43 38 40 38 34 35
45 39 48 40 45 59 61 62 66 63 59 55 52 53 52 62 70 65 58 54 61 62 49 40 40 31 36 42 43 37 30 42 47 46 46 41 38 32
34 39 33 32 36 44 47 54 56 58 60 59 57 59 58 60 47 44 49 58 57 49 41 35 36 31 35 44 50 52 51 53 41 38 39 49 48 47
31 33 24 26 30 31 31 38 52 58 56 57 58 51 41 42 42 46 45 43 34 19 20 21 33 40 47 43 41 47 52 55 54 56 53 50 52 55
22 21 18 17 19 22 27 32 37 38 40 36 35 36 38 31 29 35 39 35 30 33 44 47 39 34 28 37 48 50 48 46 42 42 45 51 59 58
16 15 14 15 14 12 13 16 17 19 22 27 30 34 31 31 36 41 44 48 52 49 37 17 20 31 34 43 39 39 36 33 31 34 37 43 53 52
12 12 12 11 9 9 7 5 3 5 7 6 9 9 11 13 17 22 23 24 19 19 25 27 28 29 29 32 31 30 30 29 32 36 41 44 53 56
18 10 3 10 14 17 22 20 20 17 17 14 13 10 13 15 10 7 7 12 15 18 20 19 21 21 23 27 28 31 32 39 38 33 31 35 34 31
1 6 3 5 8 11 12 15 16 9 14 9 12 13 13 7 12 13 16 17 21 19 17 16 26 25 28 29 30 36 35 34 30 30 34 33 28 22
13 9 9 8 15 20 23 17 15 16 15 13 14 11 7 4 7 7 3 3 6 9 14 21 28 33 25 26 27 27 28 25 30 32 28 21 18 13
5 4 12 12 12 20 14 10 6 12 9 7 7 11 9 9 8 12 13 8 8 12 12 14 16 16 14 17 24 25 23 26 30 25 18 13 10 8
Wind_Direction_500mb
247 251 254 256 254 248 250 248 265 278 276 281 264 257 248 243 247 254 267 269 271 273 274 275 275 273 268 265 261 257 253 255 259 266 272 268 287 280
244 245 250 256 260 256 263 257 260 268 273 275 252 251 256 253 256 242 261 272 281 279 281 278 281 275 268 260 255 254 255 258 263 265 265 278 275 278
241 245 249 253 257 260 267 270 263 267 268 266 245 251 267 248 236 241 253 273 276 280 285 282 282 274 262 250 240 240 245 250 254 263 268 272 278 283
237 243 247 249 255 264 272 264 267 268 262 260 259 252 262 257 259 255 267 275 271 278 283 285 279 272 261 255 249 248 247 251 258 266 275 277 276 279
232 238 242 247 256 260 256 251 256 263 260 259 260 262 260 263 270 271 279 265 270 277 283 276 276 272 264 258 254 253 254 261 261 260 269 275 278 280
235 236 241 244 252 249 246 246 245 245 251 250 263 259 251 258 264 273 274 275 275 297 300 288 289 290 276 261 263 266 271 267 266 271 273 272 274 273
232 234 238 242 244 245 243 246 246 240 240 243 256 267 243 253 262 278 257 261 274 269 287 287 295 299 301 286 296 279 279 283 284 282 278 269 269 268
232 232 231 241 241 241 240 243 243 238 241 240 248 252 255 259 254 258 257 247 251 267 263 262 266 285 291 293 298 304 299 307 307 299 291 281 265 257
235 233 230 237 241 237 233 237 239 239 244 248 236 233 238 245 255 254 246 245 250 256 255 273 257 269 281 316 282 288 293 300 304 300 291 281 262 255
236 236 231 230 234 236 233 232 239 240 242 245 243 244 241 241 247 243 256 250 242 242 244 260 262 251 257 279 284 270 285 295 301 303 299 280 257 249
237 239 238 236 236 235 233 237 241 241 241 240 244 254 252 251 248 249 242 245 253 251 243 252 279 283 250 249 257 266 268 294 311 306 303 281 266 251
236 241 242 241 242 241 236 235 237 243 235 239 232 229 228 231 251 256 254 253 249 256 251 240 261 268 286 287 282 264 264 287 295 314 309 299 279 263
242 240 246 241 238 236 235 240 238 242 239 234 232 230 237 242 253 247 246 244 249 252 252 231 232 244 256 260 258 282 282 290 294 296 303 307 293 273
228 235 239 239 241 236 233 234 234 239 237 235 233 242 238 266 245 238 249 247 254 258 258 255 263 264 260 269 273 266 276 289 277 275 288 289 294 296
226 235 238 238 237 233 235 233 231 233 232 233 241 258 241 233 246 253 255 254 255 247 247 258 269 272 279 284 284 282 281 271 272 269 272 277 281 281
222 230 233 231 231 232 231 232 231 232 236 248 254 241 244 246 250 253 262 265 260 257 226 287 290 281 284 284 284 287 284 283 280 276 275 269 270 270
199 200 188 192 200 214 228 230 230 232 238 245 250 245 246 248 253 255 259 263 267 272 279 289 277 270 273 274 284 290 294 293 290 284 284 279 270 264
148 171 185 198 206 212 221 227 224 222 232 244 248 249 257 262 258 260 264 268 275 278 281 280 271 268 277 285 289 292 295 300 290 282 283 281 281 282
139 140 117 118 124 126 121 145 127 181 206 236 265 272 268 262 269 270 267 271 272 264 265 272 273 275 281 282 290 292 294 291 289 287 291 289 282 277
97 133 156 156 159 176 182 192 193 195 193 203 213 217 239 244 245 224 228 252 260 268 283 293 288 285 282 284 284 285 292 297 296 300 296 295 305 302
56 173 355 152 164 187 195 202 206 217 193 226 229 216 237 232 262 269 273 282 285 286 289 282 278 278 282 283 290 299 297 290 293 296 302 303 303 306
123 121 136 116 85 91 82 77 87 102 101 107 110 96 82 158 219 236 274 322 313 311 288 272 264 277 285 280 280 284 287 294 299 316 323 317 306 284
110 86 100 86 108 118 117 117 104 85 114 99 94 62 99 346 40 29 38 34 324 302 303 312 306 303 289 275 280 276 268 291 303 311 310 322 338 345
Wind_Speed_850mb
68 61 62 59 50 52 54 54 53 57 61 62 51 45 49 50 53 47 44 53 56 54 54 52 50 51 52 50 47 44 46 47 51 48 43 40 49 41
64 60 56 56 55 61 63 51 58 52 66 55 28 41 45 52 31 34 42 52 50 42 37 34 34 37 38 39 38 36 38 43 42 36 38 48 41 39
69 67 61 59 62 59 58 51 52 58 58 54 49 42 39 34 34 39 49 46 38 33 31 31 29 29 25 25 27 28 30 30 33 41 41 39 37 37
67 66 62 68 69 62 59 55 46 42 43 51 45 42 37 41 42 46 47 41 33 31 29 29 24 21 21 24 28 28 28 29 32 36 34 36 38 36
73 67 62 64 59 60 52 43 46 38 39 46 51 38 34 42 42 44 39 31 27 32 28 27 24 21 20 22 27 29 32 35 33 32 34 38 38 37
69 73 69 64 62 56 51 53 46 44 43 40 43 42 37 36 48 49 37 29 26 23 25 15 15 19 22 23 27 29 28 26 29 33 37 37 36 34
69 68 69 67 64 58 56 55 51 53 52 47 46 36 33 41 50 42 39 28 26 27 29 29 25 26 21 16 15 21 16 16 22 27 33 36 32 30
72 68 69 69 71 61 57 52 50 52 57 48 46 42 35 38 38 38 29 30 36 32 34 21 31 29 35 28 15 20 20 31 33 34 33 33 32 30
73 71 73 75 72 65 59 57 57 61 59 50 57 53 43 43 39 41 41 37 35 26 25 32 23 32 29 18 28 27 27 35 38 37 34 31 31 31
71 73 74 67 65 63 62 61 70 70 74 64 56 46 51 45 35 34 41 40 43 36 38 38 30 35 23 26 29 28 33 32 31 33 33 30 31 31
70 72 71 73 73 74 60 63 66 65 71 69 60 55 50 41 39 38 38 38 42 35 26 32 29 23 23 28 30 27 28 27 35 35 34 31 31 36
70 64 67 75 75 64 67 73 69 66 56 61 56 44 38 38 35 45 42 45 44 35 29 40 36 16 19 18 27 37 35 31 34 31 33 31 32 37
49 52 58 69 72 65 61 67 71 64 56 48 46 41 45 49 60 53 53 62 53 51 27 27 32 28 26 31 22 22 32 43 43 38 40 38 34 35
45 39 48 40 45 59 61 62 66 63 59 55 52 53 52 62 70 65 58 54 61 62 49 40 40 31 36 42 43 37 30 42 47 46 46 41 38 32
34 39 33 32 36 44 47 54 56 58 60 59 57 59 58 60 47 44 49 58 57 49 41 35 36 31 35 44 50 52 51 53 41 38 39 49 48 47
31 33 24 26 30 31 31 38 52 58 56 57 58 51 41 42 42 46 45 43 34 19 20 21 33 40 47 43 41 47 52 55 54 56 53 50 52 55
22 21 18 17 19 22 27 32 37 38 40 36 35 36 38 31 29 35 39 35 30 33 44 47 39 34 28 37 48 50 48 46 42 42 45 51 59 58
16 15 14 15 14 12 13 16 17 19 22 27 30 34 31 31 36 41 44 48 52 49 37 17 20 31 34 43 39 39 36 33 31 34 37 43 53 52
12 12 12 11 9 9 7 5 3 5 7 6 9 9 11 13 17 22 23 24 19 19 25 27 28 29 29 32 31 30 30 29 32 36 41 44 53 56
18 10 3 10 14 17 22 20 20 17 17 14 13 10 13 15 10 7 7 12 15 18 20 19 21 21 23 27 28 31 32 39 38 33 31 35 34 31
1 6 3 5 8 11 12 15 16 9 14 9 12 13 13 7 12 13 16 17 21 19 17 16 26 25 28 29 30 36 35 34 30 30 34 33 28 22
13 9 9 8 15 20 23 17 15 16 15 13 14 11 7 4 7 7 3 3 6 9 14 21 28 33 25 26 27 27 28 25 30 32 28 21 18 13
5 4 12 12 12 20 14 10 6 12 9 7 7 11 9 9 8 12 13 8 8 12 12 14 16 16 14 17 24 25 23 26 30 25 18 13 10 8
Wind_Direction_850mb
247 251 254 256 254 248 250 248 265 278 276 281 264 257 248 243 247 254 267 269 271 273 274 275 275 273 268 265 261 257 253 255 259 266 272 268 287 280
244 245 250 256 260 256 263 257 260 268 273 275 252 251 256 253 256 242 261 272 281 279 281 278 281 275 268 260 255 254 255 258 263 265 265 278 275 278
241 245 249 253 257 260 267 270 263 267 268 266 245 251 267 248 236 241 253 273 276 280 285 282 282 274 262 250 240 240 245 250 254 263 268 272 278 283
237 243 247 249 255 264 272 264 267 268 262 260 259 252 262 257 259 255 267 275 271 278 283 285 279 272 261 255 249 248 247 251 258 266 275 277 276 279
232 238 242 247 256 260 256 251 256 263 260 259 260 262 260 263 270 271 279 265 270 277 283 276 276 272 264 258 254 253 254 261 261 260 269 275 278 280
235 236 241 244 252 249 246 246 245 245 251 250 263 259 251 258 264 273 274 275 275 297 300 288 289 290 276 261 263 266 271 267 266 271 273 272 274 273
232 234 238 242 244 245 243 246 246 240 240 243 256 267 243 253 262 278 257 261 274 269 287 287 295 299 301 286 296 279 279 283 284 282 278 269 269 268
232 232 231 241 241 241 240 243 243 238 241 240 248 252 255 259 254 258 257 247 251 267 263 262 266 285 291 293 298 304 299 307 307 299 291 281 265 257
235 233 230 237 241 237 233 237 239 239 244 248 236 233 238 245 255 254 246 245 250 256 255 273 257 269 281 316 282 288 293 300 304 300 291 281 262 255
236 236 231 230 234 236 233 232 239 240 242 245 243 244 241 241 247 243 256 250 242 242 244 260 262 251 257 279 284 270 285 295 301 303 299 280 257 249
237 239 238 236 236 235 233 237 241 241 241 240 244 254 252 251 248 249 242 245 253 251 243 252 279 283 250 249 257 266 268 294 311 306 303 281 266 251
236 241 242 241 242 241 236 235 237 243 235 239 232 229 228 231 251 256 254 253 249 256 251 240 261 268 286 287 282 264 264 287 295 314 309 299 279 263
242 240 246 241 238 236 235 240 238 242 239 234 232 230 237 242 253 247 246 244 249 252 252 231 232 244 256 260 258 282 282 290 294 296 303 307 293 273
228 235 239 239 241 236 233 234 234 239 237 235 233 242 238 266 245 238 249 247 254 258 258 255 263 264 260 269 273 266 276 289 277 275 288 289 294 296
226 235 238 238 237 233 235 233 231 233 232 233 241 258 241 233 246 253 255 254 255 247 247 258 269 272 279 284 284 282 281 271 272 269 272 277 281 281
222 230 233 231 231 232 231 232 231 232 236 248 254 241 244 246 250 253 262 265 260 257 226 287 290 281 284 284 284 287 284 283 280 276 275 269 270 270
199 200 188 192 200 214 228 230 230 232 238 245 250 245 246 248 253 255 259 263 267 272 279 289 277 270 273 274 284 290 294 293 290 284 284 279 270 264
148 171 185 198 206 212 221 227 224 222 232 244 248 249 257 262 258 260 264 268 275 278 281 280 271 268 277 285 289 292 295 300 290 282 283 281 281 282
139 140 117 118 124 126 121 145 127 181 206 236 265 272 268 262 269 270 267 271 272 264 265 272 273 275 281 282 290 292 294 291 289 287 291 289 282 277
97 133 156 156 159 176 182 192 193 195 193 203 213 217 239 244 245 224 228 252 260 268 283 293 288 285 282 284 284 285 292 297 296 300 296 295 305 302
56 173 355 152 164 187 195 202 206 217 193 226 229 216 237 232 262 269 273 282 285 286 289 282 278 278 282 283 290 299 297 290 293 296 302 303 303 306
123 121 136 116 85 91 82 77 87 102 101 107 110 96 82 158 219 236 274 322 313 311 288 272 264 277 285 280 280 284 287 294 299 316 323 317 306 284
110 86 100 86 108 118 117 117 104 85 114 99 94 62 99 346 40 29 38 34 324 302 303 312 306 303 289 275 280 276 268 291 303 311 310 322 338 345